ARIANE 42P R/B, 22079

Orbit data source: Space-Track

ARIANE 42P R/B, 22079 is space debris in LEO originally from a launch on Mon, 10 Aug 1992 UTC launched from the French Guiana (FRGUI). Debris objects in space refer to the collection of defunct objects orbiting the Earth. Examples of debris include non-operational satellites, rocket bodies, and fragments generated from explosions, collisions, or faulty payload assembly.

Loading next visibility...
Identifier
22079, 1992-052D
Orbit
LEO
Country
Flag of FRFR
Related business
Manufacturer
Ae/LesM
Mission
Spacecraft
Bus & Motor
ARIANE H10, Unknown motor
Mass
1,875 kg wet, 1,820 kg dry
Launch date (UTC)
1992-08-10 (33 years ago)
Launch vehicle
Unknown
Launch site
French Guiana (FRGUI)
Object type
Payload
Rocket body
Debris
Shape & HBR
Cyl, 6.0 m
Radar Cross Section
27.363 m², Large (>1 m²)

Expand to show TLE details & history
Last TLE update: 14 hours ago

TLE from 14 hours ago
0 ARIANE 42P R/B
1 22079U 92052D   25306.50837086 -.00000025  00000-0  15609-3 0  9993
2 22079  66.0675  53.8912 0063134  42.5004  32.1160 12.77958464550424
Epoch: 2025-11-02T12:12Z
TLE epoch observation values (Epoch: 2025-11-02T12:12:03.242Z)
Latitude
62.10363°
Longitude
-114.61666°
Altitude
1,318.217 km
Speed
7.223 km/s
True Right ascension
07h 21m 40s
True Declination
61° 58' 18"
Sunlit
Object was in daylight at epoch
Visualization orbit readout
Latitude
Unknown
Longitude
Unknown
Altitude
Unknown
Speed
Unknown
Apparent Right ascension
Unknown
Apparent Declination
Unknown
Sunlit
N/A
Visualization observer readout
Local Sidereal Time
22:30:33
Azimuth
Unknown
Elevation
Unknown
Doppler factor
Unknown
Orbital elements
Apogee altitude
1,397.031 km
Perigee altitude
1,299.472 km
Semi-major axis
7,726.388 km
Eccentricity
0.00631
Inclination
66.0675°
RAAN
53.8912°
Arg. of periapsis
42.5004°
True anomaly
32.5032°
Mean anomaly
32.116°
Eccentric anomaly
32.30934°
Mean motion
3.19579 °/min
Orbital period
112.65 mins
BSTAR
0.00015609
Loading maneuver chart data...
Computing Atmospheric mass density...
Loading historical data...
Loading historical data...
Loading historical data...
Loading historical data...
Loading historical data...
Loading historical data...
Loading historical data...

Documentation

Showing up to 5 results
|